Wind_Speed
23 23 23 24 24 25 26 27 28 29 30 31 31 31 31 31 32 33 34 34 34 34 33 32 32 32 32 33 34 33 32 31 31 33 28 23 28 31 29 29 28 28 29 28 27 27 25 24 22 21 20 21 24 24 26 27 23 20 24 29 32 32 30 29 26 24 21 19 22 20 18 23 26 26 26 23 19 16 16 19 20 22 26 24 22 21 22 23
21 21 21 22 23 23 24 25 26 27 28 29 30 31 31 31 31 32 33 33 34 34 32 31 31 31 32 33 34 33 33 32 33 31 22 21 28 28 27 28 27 26 27 27 26 25 24 22 20 20 21 22 23 23 25 27 26 25 26 30 35 35 32 28 25 24 22 20 21 22 21 17 15 14 14 10 9 9 8 13 21 25 25 26 26 23 24 24
18 19 20 20 21 22 23 24 25 26 26 27 28 29 30 30 30 30 31 32 33 33 32 31 30 31 32 33 34 33 33 33 33 29 21 24 27 24 26 27 25 25 26 25 24 24 23 21 19 18 20 22 22 23 25 26 28 29 28 32 35 32 30 28 25 23 22 21 22 21 22 17 15 15 10 6 5 2 3 10 16 20 22 24 25 24 23 23
18 18 19 20 20 21 22 22 23 24 25 26 27 27 28 29 29 29 30 30 31 31 31 30 30 31 31 32 33 33 33 32 32 28 23 26 26 24 24 24 25 25 25 25 25 25 23 23 22 17 17 21 22 22 25 27 27 28 30 35 33 25 25 26 25 24 22 22 25 21 17 14 15 18 16 11 11 10 8 12 19 22 22 21 24 25 25 24
21 21 21 21 21 21 22 22 23 23 24 24 25 26 26 27 28 28 29 29 29 29 29 28 29 31 31 32 32 32 31 29 29 28 26 26 27 25 24 24 25 26 26 26 26 25 23 25 25 21 17 20 21 23 25 26 25 27 29 33 31 24 21 20 19 22 22 21 25 24 18 12 7 11 18 16 15 15 9 10 21 24 24 23 23 26 28 27
24 23 23 23 23 23 22 22 22 22 22 23 23 24 24 25 26 27 28 28 28 28 27 27 28 30 31 32 31 32 30 25 24 25 26 26 26 25 24 25 26 26 27 27 26 26 25 24 27 26 22 20 22 24 25 23 24 27 28 27 27 26 25 20 18 21 22 20 21 25 21 13 11 10 10 10 12 17 13 13 21 22 21 22 23 26 28 28
26 25 24 24 23 23 23 22 21 20 20 21 22 22 22 23 23 25 25 26 27 27 26 26 26 28 30 32 31 32 31 27 22 19 21 25 27 26 26 26 26 27 28 28 26 27 27 26 28 29 26 23 23 24 23 21 23 28 28 25 23 24 25 22 22 25 26 21 21 25 21 14 20 19 12 10 9 16 16 16 24 23 18 18 20 24 26 28
27 27 26 25 24 23 22 21 20 19 19 19 20 21 21 22 22 22 22 24 25 25 26 25 26 27 28 31 31 34 35 30 25 20 18 22 25 27 27 26 26 27 27 27 26 26 27 28 30 29 28 25 22 23 23 22 23 27 28 25 24 23 23 21 23 27 27 22 21 25 27 19 21 22 20 15 10 16 13 14 24 25 21 18 17 22 26 29
28 28 27 26 25 24 22 20 19 18 19 19 20 20 21 21 20 19 19 20 21 23 24 23 26 26 28 30 31 38 36 24 23 26 26 27 25 25 28 27 27 27 27 26 25 26 28 29 29 29 28 24 20 20 22 25 27 27 26 25 25 25 23 21 22 24 24 24 23 24 29 28 26 26 27 22 17 18 11 12 23 25 24 21 19 22 26 29
28 28 27 26 25 24 23 21 19 19 20 20 20 20 19 18 17 17 17 17 17 19 20 22 25 25 28 29 34 41 30 21 27 32 33 34 29 26 27 29 28 27 27 26 27 28 29 29 28 28 26 22 20 19 21 25 26 23 22 24 25 26 26 25 23 22 21 23 23 24 26 29 30 31 34 30 27 24 13 13 24 26 26 22 20 22 25 27
28 27 26 25 25 24 23 21 20 21 22 22 21 20 18 17 16 16 17 17 17 17 18 19 22 26 29 30 38 38 24 28 35 32 32 34 31 27 27 30 29 28 27 27 28 28 28 28 27 27 25 23 22 20 22 24 22 21 21 24 25 24 25 26 26 21 19 21 22 24 25 26 27 27 31 29 28 25 17 15 23 26 27 24 23 24 27 27
26 25 24 23 23 23 22 21 21 22 23 23 22 20 19 19 19 18 19 19 18 18 18 19 21 25 28 34 42 31 21 31 37 32 33 34 31 29 29 31 32 31 28 27 28 28 28 27 29 28 24 23 23 20 22 24 22 22 22 24 26 24 24 25 26 24 21 20 19 19 21 25 28 27 26 23 21 21 18 19 26 28 27 26 27 26 27 27
24 23 22 23 23 22 21 21 22 24 24 23 22 21 21 21 21 21 21 21 21 20 19 20 21 24 29 38 40 27 23 32 35 34 34 33 32 32 31 32 33 34 32 30 28 27 27 27 30 31 24 20 22 20 18 18 20 23 23 23 24 26 28 26 24 26 26 23 20 19 22 26 30 27 24 22 20 18 18 22 29 31 27 27 29 27 28 29
22 22 22 22 22 21 21 22 24 25 25 24 23 22 22 22 23 23 23 22 22 22 22 22 23 25 32 38 32 23 26 34 37 37 34 33 33 33 32 32 33 35 35 35 32 29 28 28 30 32 29 24 22 19 17 16 18 21 22 24 26 27 28 25 23 26 28 26 22 23 28 29 27 24 19 18 20 19 20 25 31 32 27 27 29 29 29 27
20 21 21 21 21 21 22 24 25 25 24 24 23 23 23 24 24 24 24 24 23 23 23 24 25 27 35 37 27 22 30 37 41 39 34 34 34 32 30 30 30 31 34 35 35 33 30 28 31 34 32 28 24 22 22 21 20 20 22 25 29 28 25 23 23 24 26 26 22 24 30 32 28 23 17 16 18 19 21 25 30 32 30 28 30 27 23 18
20 20 21 21 22 23 24 25 25 24 24 23 23 24 25 25 25 25 26 25 25 25 25 25 26 30 36 32 22 21 31 39 41 38 34 34 34 31 29 29 28 28 29 31 33 34 31 28 29 34 33 29 27 25 23 23 23 22 24 25 27 28 25 23 24 22 23 24 26 28 29 30 28 22 19 20 19 21 26 28 30 30 28 27 29 29 26 21
20 21 21 22 23 23 23 23 23 24 24 24 24 25 26 26 27 27 27 26 26 27 26 26 26 31 35 26 19 19 23 30 34 35 35 35 34 30 30 32 30 28 25 26 30 32 33 29 27 30 32 32 30 26 23 25 26 23 25 25 24 25 25 25 26 24 23 26 30 32 32 31 26 20 20 21 20 25 31 32 34 32 29 29 30 30 28 24
22 22 22 22 21 21 22 23 23 24 24 25 25 26 28 28 29 29 28 27 27 28 28 27 25 31 29 16 14 17 15 21 27 30 34 36 35 31 32 34 32 29 25 25 31 33 34 32 28 28 32 34 32 30 29 27 25 23 24 26 24 23 25 28 27 24 24 29 32 33 34 33 25 22 21 19 21 27 31 32 33 33 32 31 32 29 28 26
23 23 23 22 21 22 22 23 23 24 25 26 27 29 29 30 31 30 27 25 26 28 27 25 25 29 24 8 5 8 9 14 20 25 31 35 37 33 32 33 33 31 26 26 33 36 35 32 29 31 36 38 36 35 31 27 24 21 22 26 26 24 26 27 27 24 23 30 35 34 34 33 28 27 25 20 20 24 29 32 30 30 31 30 30 28 27 25
24 24 24 23 22 23 23 23 23 24 26 27 28 30 30 30 29 26 22 21 25 26 24 24 26 29 26 15 8 10 12 14 17 20 25 29 34 35 32 31 33 33 29 27 32 36 35 33 35 38 38 38 38 34 29 27 23 19 20 24 26 27 27 27 27 26 23 30 38 36 34 34 31 31 29 23 20 20 25 30 31 30 30 30 29 26 25 22
25 25 25 24 23 23 23 23 24 25 25 26 27 27 27 26 22 18 17 21 23 23 23 22 23 28 26 20 17 17 17 20 21 19 20 21 25 34 36 33 35 37 34 28 27 31 35 38 40 38 35 34 36 33 28 28 25 22 23 25 26 28 27 25 25 27 25 31 40 38 34 33 32 32 31 26 23 23 22 24 27 29 30 28 25 23 23 19
25 25 24 23 23 24 23 22 23 24 23 23 22 21 20 17 15 16 20 26 25 22 24 21 21 26 24 22 23 20 17 21 23 22 23 24 23 32 37 37 38 39 34 29 27 30 38 43 39 35 32 30 31 32 30 29 28 27 27 28 27 26 25 23 23 27 28 32 41 40 33 29 31 33 29 27 28 29 26 21 21 25 27 25 23 23 24 21
24 24 23 23 24 24 22 22 23 21 20 19 17 16 15 14 14 15 19 26 26 22 25 24 21 21 20 23 28 22 21 24 24 24 29 32 29 29 33 38 41 38 33 34 35 35 38 41 37 32 30 28 28 31 32 30 29 31 31 31 30 25 24 24 24 25 27 31 37 36 31 25 26 31 28 27 29 29 27 23 21 21 21 20 21 22 22 20
23 23 23 22 24 23 20 21 21 18 17 15 15 16 15 14 14 14 17 24 26 22 23 24 23 21 17 19 27 24 24 27 28 27 33 36 33 29 30 37 40 36 33 35 38 36 33 34 35 31 28 29 30 30 34 33 30 33 35 33 31 28 23 22 24 22 22 30 31 27 29 25 24 28 28 27 27 27 25 23 24 23 22 20 19 21 19 18
22 22 22 23 24 22 19 19 19 16 15 14 14 15 15 13 11 12 14 18 24 22 18 22 25 23 16 18 27 26 24 28 31 28 31 33 33 33 30 33 38 35 33 34 36 35 28 27 32 33 30 33 33 32 35 36 32 33 37 35 31 28 22 21 24 21 19 30 29 24 18 15 22 25 25 27 27 27 25 24 26 25 23 21 20 21 20 19
20 20 21 22 23 20 17 17 16 13 12 14 13 13 12 11 8 9 10 13 20 20 16 20 22 19 17 22 29 25 22 31 35 30 29 30 31 34 29 30 37 35 31 31 32 34 27 24 31 34 33 33 35 35 35 36 34 34 37 36 32 29 27 26 25 19 18 25 25 26 15 6 17 24 25 29 29 28 27 25 27 26 23 22 22 23 22 22
19 19 19 20 22 19 15 14 13 11 12 13 13 13 11 8 6 7 6 8 13 12 9 16 17 14 14 19 27 28 21 25 37 36 34 34 32 34 29 28 36 35 30 28 29 34 30 27 32 35 34 34 37 38 35 35 36 36 35 35 33 31 30 28 24 20 19 23 23 26 22 10 15 24 26 29 30 30 30 29 27 25 24 24 24 24 24 24
17 17 17 17 20 19 14 12 11 10 11 11 11 11 8 6 3 5 2 4 8 7 2 12 12 10 8 11 26 35 18 14 35 42 37 37 35 34 32 27 31 34 32 29 30 33 31 30 33 36 37 37 39 39 34 33 35 34 32 31 31 28 28 27 22 20 18 22 20 23 23 11 10 23 28 28 31 29 29 29 26 24 24 25 26 26 26 26
16 16 15 14 17 17 13 11 10 10 10 9 9 8 7 6 2 3 2 3 9 7 5 11 9 7 7 9 20 31 20 14 31 38 34 38 36 31 32 27 24 30 32 30 29 26 29 31 31 33 39 39 37 36 33 32 34 31 27 26 26 25 25 24 22 21 16 13 18 24 26 12 6 23 32 29 30 30 28 26 23 21 24 25 25 25 25 26
15 15 13 11 14 15 12 9 9 10 10 8 7 6 5 5 3 3 3 4 9 12 1 10 11 7 9 13 15 26 28 19 23 27 30 39 36 28 31 29 24 27 31 30 27 24 27 30 29 32 39 38 33 33 34 31 29 28 26 24 24 25 25 22 22 23 14 7 16 25 29 18 7 21 36 30 25 26 26 26 24 22 25 25 23 23 25 25
14 14 12 10 12 13 10 8 8 9 9 9 6 4 3 4 3 2 3 7 11 12 5 8 13 8 8 16 17 23 30 23 20 21 29 39 36 26 28 31 29 26 28 31 29 28 28 30 32 33 35 35 31 31 33 31 28 27 28 27 23 21 22 20 22 20 8 4 15 22 25 20 11 18 31 26 21 23 22 23 24 23 25 25 21 22 23 22
14 13 11 10 10 12 10 8 7 7 7 7 5 4 4 4 4 6 8 10 8 9 10 2 11 11 9 14 18 20 27 29 24 19 28 37 34 29 32 37 36 28 26 33 34 32 33 33 33 30 32 35 32 30 33 34 31 30 32 30 18 11 12 11 11 10 3 3 11 21 21 16 13 19 27 24 22 24 21 18 18 18 21 25 23 22 21 20
15 13 11 10 9 10 11 9 7 5 5 4 2 3 4 4 4 8 11 10 7 11 17 11 7 12 12 10 16 20 25 32 27 18 25 33 31 32 37 38 35 26 22 30 34 29 28 31 32 30 32 37 36 35 37 37 35 36 38 32 16 5 5 5 3 2 2 4 8 17 14 10 12 20 27 27 24 20 17 16 14 12 17 21 23 22 21 20
16 13 10 8 8 10 11 10 8 6 4 2 3 3 4 6 6 9 13 13 13 16 17 15 12 11 15 11 15 19 25 32 27 17 23 33 34 35 38 35 31 26 20 24 31 27 20 23 34 37 34 38 40 36 36 36 33 36 38 32 19 10 6 4 1 3 2 4 6 9 5 3 7 10 13 19 21 18 19 18 13 11 14 18 22 22 21 22
16 13 10 9 10 10 10 10 9 7 5 5 6 6 7 9 9 12 14 13 15 17 16 17 14 8 13 14 17 19 24 29 24 19 23 32 38 40 41 38 34 31 25 22 27 30 22 21 35 37 29 35 40 33 32 32 29 33 36 33 26 18 12 8 4 4 2 1 4 7 5 5 8 8 7 8 16 23 22 20 16 15 15 15 18 21 21 24
16 13 11 11 11 10 9 9 10 9 7 7 8 10 12 12 13 16 16 16 17 17 16 16 11 4 11 16 18 17 22 25 20 21 27 31 38 40 40 39 37 33 28 24 26 29 21 18 32 35 26 31 37 32 33 30 26 30 34 35 31 19 15 14 9 6 4 1 4 9 11 11 9 6 6 7 22 28 25 23 19 17 16 13 15 18 21 24
16 14 12 12 11 10 10 10 11 10 8 8 11 14 15 16 18 19 18 20 19 15 14 12 8 3 10 16 18 18 21 23 18 20 27 30 33 37 37 36 36 34 29 25 26 28 20 16 30 38 30 30 34 32 33 30 26 30 32 33 30 18 17 18 11 6 5 1 3 11 14 14 8 2 2 13 26 27 26 25 20 19 18 13 14 18 20 22
17 14 12 13 12 12 12 12 12 11 9 11 16 18 17 18 20 20 20 18 14 11 11 8 6 3 9 14 18 20 20 21 20 19 24 27 29 34 36 35 34 34 32 25 21 27 24 15 27 38 30 30 36 31 29 30 29 29 28 30 28 15 14 16 9 6 7 2 1 8 12 13 11 8 11 22 28 26 28 28 23 22 20 15 15 18 20 21
19 15 14 15 14 13 14 13 14 13 11 14 18 18 18 20 19 17 17 14 7 7 8 7 7 3 9 13 15 19 19 20 21 20 22 24 25 32 38 36 33 34 34 26 20 27 26 11 19 35 29 28 35 31 27 29 28 27 25 28 29 18 12 14 9 8 9 4 1 4 6 9 14 13 15 23 26 28 32 31 26 23 18 15 15 16 19 22
19 16 15 16 16 15 14 13 13 14 15 18 20 19 19 21 19 14 14 14 8 7 7 8 9 6 7 14 15 15 17 22 22 20 22 23 22 31 39 36 33 34 34 29 22 25 28 13 18 31 28 25 33 36 33 28 26 30 28 27 30 23 16 15 11 12 14 7 3 2 2 8 14 16 18 22 22 24 27 25 24 22 17 15 15 15 18 21
20 18 15 15 17 17 15 16 16 16 18 20 20 21 20 22 21 18 17 14 10 8 9 9 10 7 6 13 16 11 11 20 22 19 21 24 23 29 41 40 34 32 31 29 24 23 25 21 23 30 29 28 33 36 36 28 24 31 28 24 31 27 19 12 7 14 19 10 7 7 4 8 12 16 21 26 26 23 18 16 19 20 17 15 16 17 18 20
19 18 16 16 19 18 16 19 18 17 20 21 20 21 21 22 24 21 17 11 8 8 10 11 10 8 6 10 14 10 7 14 22 21 19 25 25 28 43 45 34 29 26 25 25 23 21 22 28 33 31 29 27 31 38 30 21 29 27 20 28 30 24 14 6 13 19 13 13 13 8 8 9 12 19 23 26 23 16 14 16 18 18 16 17 19 18 18
18 18 17 16 16 15 16 20 20 19 21 21 21 22 21 22 24 21 16 11 8 7 8 8 8 6 5 7 12 13 7 9 18 23 17 22 25 26 43 46 32 28 25 20 24 24 18 19 28 30 25 25 24 26 37 31 19 28 33 24 26 32 31 21 11 15 17 13 14 11 5 7 4 6 14 17 21 21 16 14 16 18 19 18 18 20 19 20
20 19 20 19 18 16 16 19 20 20 21 20 20 20 17 17 16 15 13 9 8 8 6 4 5 6 6 9 14 15 9 7 14 23 18 20 23 24 42 47 32 27 23 19 26 25 16 19 27 22 14 17 19 17 27 34 26 26 33 30 25 27 31 27 19 16 11 9 14 9 4 9 7 6 11 12 16 19 16 16 18 16 17 19 19 20 21 22
23 23 24 24 22 16 15 17 18 20 19 18 19 17 14 11 9 11 12 8 8 9 5 3 4 5 8 13 15 15 13 9 12 19 19 20 21 25 41 46 33 26 22 18 25 22 16 22 28 21 10 8 12 12 21 34 30 21 25 32 27 21 26 30 24 15 8 9 12 8 6 12 12 9 12 15 18 16 12 16 19 15 13 18 20 20 20 21
25 25 27 28 23 18 20 22 19 19 18 18 19 16 12 9 6 7 6 3 4 5 4 4 7 7 7 12 12 13 16 11 10 16 19 19 21 26 40 43 32 26 22 19 21 18 17 24 26 24 17 9 11 16 22 30 27 18 21 31 30 21 22 29 26 16 10 10 10 5 8 14 16 14 13 16 20 17 12 15 19 18 16 19 20 17 17 18
25 25 28 30 25 23 28 27 21 18 16 16 17 13 8 7 4 4 4 2 2 5 7 7 10 10 9 10 7 9 12 9 8 15 17 15 22 28 36 38 31 26 23 21 21 18 19 24 25 24 18 13 15 20 23 29 27 18 20 28 30 24 19 22 24 19 14 10 7 7 12 15 16 13 12 14 17 18 15 13 14 16 17 19 19 18 18 18
25 26 27 28 26 27 31 30 27 22 12 9 11 9 7 7 6 7 6 3 3 7 9 9 10 11 10 5 4 7 8 8 11 16 14 13 24 30 33 36 32 25 22 22 23 21 18 21 25 23 17 15 20 22 22 26 28 21 19 23 27 28 24 21 21 22 21 14 8 9 12 13 14 14 13 13 12 13 14 13 13 14 16 17 19 21 21 20
26 28 28 27 25 26 29 31 31 23 12 8 9 8 7 7 7 6 4 4 5 7 7 7 9 12 7 1 7 8 4 8 15 15 11 12 23 30 33 35 31 24 22 23 22 20 17 19 22 22 19 15 17 22 24 27 28 26 22 22 25 29 29 23 20 22 24 20 12 7 5 8 11 11 13 15 13 10 11 12 14 15 16 18 20 21 22 22
28 29 30 27 24 24 26 29 29 22 17 15 11 7 7 7 6 6 4 3 4 4 4 5 10 10 1 5 6 5 7 12 13 11 9 8 17 30 33 29 27 25 25 24 20 17 17 17 18 18 16 12 10 16 24 30 31 28 27 27 25 27 30 25 19 20 25 25 18 8 5 5 7 10 14 15 15 13 12 12 14 14 16 18 20 21 23 23
26 27 29 28 26 25 25 27 27 24 24 23 14 8 7 6 7 7 4 3 3 2 5 9 13 8 2 5 6 8 9 10 10 11 11 7 15 30 27 21 25 27 26 24 18 16 18 15 14 13 10 7 6 6 13 26 31 29 30 31 25 24 29 27 21 18 22 26 23 15 10 8 6 10 16 16 13 11 9 11 14 14 15 17 18 19 21 22
25 26 28 27 26 25 23 26 27 26 28 28 17 8 6 6 8 7 4 3 1 1 6 12 13 6 1 3 6 6 5 7 10 13 12 9 16 25 19 18 26 26 25 25 16 14 19 13 8 9 4 2 6 4 8 19 20 19 25 28 25 23 26 26 23 19 17 21 22 17 11 8 6 12 18 16 11 9 7 8 12 13 14 15 16 16 16 18
Wind_Direction
295 293 290 287 284 281 278 276 275 274 272 272 271 270 268 266 265 263 262 260 259 258 256 254 252 250 248 247 246 244 242 240 240 241 241 240 240 240 238 239 240 238 237 236 236 236 236 234 232 230 223 220 220 213 209 203 189 199 217 222 226 226 228 225 222 229 237 247 247 253 273 263 258 264 265 271 278 281 282 272 264 260 257 252 251 256 258 256
300 299 296 293 289 286 282 279 276 275 274 273 272 272 271 269 267 265 263 262 260 258 256 255 252 251 249 248 246 245 243 241 240 241 239 237 237 237 237 237 237 238 236 234 234 233 233 231 226 225 222 219 220 213 209 202 188 196 216 227 229 224 224 226 226 226 234 250 244 253 275 258 235 241 246 261 284 308 308 272 262 259 257 253 249 251 250 246
305 304 303 300 297 293 288 284 281 277 275 274 273 273 272 271 270 268 265 263 261 259 257 255 253 251 249 249 247 245 244 242 242 241 233 235 237 233 232 233 232 233 234 231 230 229 227 224 217 218 220 217 217 212 206 203 195 196 210 227 234 232 228 226 225 224 233 246 240 249 273 258 213 195 199 195 188 207 214 240 259 261 259 249 246 249 241 237
310 309 307 306 303 300 295 291 286 282 279 277 275 274 272 272 272 271 269 266 263 261 258 254 252 250 249 249 248 245 244 244 245 239 229 232 235 229 227 227 226 227 229 227 225 223 220 217 208 202 216 216 211 210 205 203 201 200 210 223 229 236 240 235 225 221 224 234 236 250 276 265 227 206 218 225 215 226 226 250 268 269 266 252 245 247 241 242
312 311 311 309 308 305 301 297 291 287 284 281 279 277 275 274 272 272 271 269 266 263 259 255 252 250 248 248 247 245 243 244 245 238 229 230 232 229 224 222 222 222 222 224 221 217 216 217 209 195 205 215 205 207 207 203 205 207 217 227 229 227 234 242 234 225 223 227 235 252 268 260 240 224 235 245 241 244 240 255 270 272 272 263 253 250 246 248
310 310 310 309 310 307 304 301 296 291 287 285 283 281 280 277 275 274 272 271 269 266 262 256 252 249 247 246 246 243 239 237 241 236 227 227 229 229 224 220 218 216 218 220 217 212 210 212 212 200 198 209 204 205 207 201 207 216 220 228 236 233 229 228 224 231 233 237 250 257 259 237 221 234 226 227 244 246 232 243 271 282 279 268 259 255 251 250
307 307 306 306 307 306 304 301 298 294 290 288 287 285 284 282 280 277 274 272 270 268 264 258 252 249 247 245 243 242 235 228 229 226 221 224 225 225 223 220 217 213 214 217 214 211 208 205 212 206 195 203 206 206 206 200 208 222 224 224 235 240 241 231 213 224 230 243 263 251 243 220 215 231 222 201 240 250 235 244 270 282 283 272 264 258 253 249
306 305 304 303 304 304 301 297 295 293 292 292 291 290 288 286 285 282 279 275 272 269 265 260 254 249 246 244 242 240 233 224 225 222 217 219 220 221 219 218 217 213 212 214 212 211 210 204 207 206 196 198 207 207 202 203 213 224 228 226 232 237 245 244 224 225 228 242 267 251 242 237 221 230 232 221 242 257 252 262 267 273 275 271 268 259 249 247
305 304 302 301 301 302 299 294 290 289 291 292 290 290 288 288 287 286 284 281 277 272 267 262 255 250 247 244 240 240 233 221 226 222 216 214 209 210 212 212 214 212 210 210 209 208 210 207 205 204 199 193 202 212 205 207 216 221 229 231 234 236 237 242 240 238 238 247 268 262 250 246 236 236 239 234 240 248 252 267 262 262 264 263 264 256 248 248
304 302 300 298 298 299 296 292 289 289 292 292 290 287 283 282 284 287 288 286 284 277 272 265 257 251 247 243 241 240 228 209 219 218 215 214 205 199 202 206 209 208 206 205 206 207 208 207 203 202 201 193 195 210 210 212 216 216 227 234 234 239 237 232 236 244 248 251 261 265 258 252 246 244 248 245 243 240 221 245 261 257 252 253 258 251 246 247
303 300 297 296 295 295 292 288 288 291 294 294 292 286 279 275 277 283 287 288 288 285 280 271 262 254 248 243 241 238 217 208 218 214 212 215 209 200 198 202 205 204 204 203 204 205 207 205 198 196 200 199 197 207 212 213 219 217 224 237 238 241 244 234 228 230 241 250 253 256 257 257 250 243 248 249 245 238 215 236 258 253 246 247 253 250 244 244
304 300 297 295 294 293 289 285 288 292 295 295 291 285 278 273 273 277 281 285 287 286 283 277 269 260 253 245 240 232 208 212 219 215 213 214 211 208 203 201 202 200 198 201 203 203 204 202 195 192 196 204 203 207 213 212 219 223 226 243 245 241 245 243 234 226 230 243 246 243 244 250 249 245 245 245 245 237 218 233 249 249 247 247 249 249 242 239
304 302 299 297 295 291 287 286 291 295 296 294 291 287 280 276 276 276 277 280 282 283 281 278 273 267 260 250 242 228 207 212 216 215 215 214 210 208 207 203 201 199 195 195 198 200 202 200 198 192 186 199 208 212 214 209 217 224 229 242 245 242 244 244 237 229 227 233 238 240 245 249 250 254 250 238 241 239 216 223 243 248 246 244 246 247 241 235
306 304 302 300 298 294 290 290 294 296 296 294 291 288 284 282 280 279 279 278 278 278 276 275 273 271 266 258 249 230 211 210 214 214 214 219 212 203 205 203 201 202 198 195 190 192 198 198 200 195 187 192 202 212 213 208 220 229 232 237 239 243 245 238 234 233 227 227 235 240 245 249 251 259 260 240 234 231 220 226 239 238 227 228 234 230 229 226
311 309 307 305 302 299 297 296 297 297 295 293 290 288 284 283 282 281 281 279 277 274 271 271 271 271 269 265 258 235 215 210 213 212 212 221 215 202 203 202 202 205 204 200 190 186 190 193 199 198 192 189 193 208 215 217 227 228 228 232 233 239 244 233 227 235 234 226 229 233 237 245 246 247 254 254 242 229 231 233 229 224 219 227 236 236 241 246
315 313 309 307 303 301 299 298 298 297 296 293 291 289 287 285 284 283 282 281 278 273 268 266 267 269 268 269 266 241 224 217 214 213 214 221 219 209 204 202 201 204 206 204 195 187 184 187 200 201 195 193 197 210 218 226 231 223 223 229 229 233 240 236 224 228 236 228 225 229 232 241 245 242 236 246 248 227 226 224 214 217 225 234 248 258 265 272
318 314 310 307 303 302 300 299 298 297 296 294 293 291 290 288 287 286 284 281 278 273 269 264 262 265 267 274 275 254 236 227 220 218 219 220 221 212 207 207 203 200 201 203 198 190 185 185 195 204 202 199 201 210 219 230 231 219 219 227 229 231 234 237 230 225 230 227 223 226 233 238 242 247 239 239 240 223 219 221 218 223 232 238 250 255 260 265
321 317 314 310 305 303 301 300 300 298 297 296 295 292 290 290 288 286 283 281 277 271 269 265 259 261 267 281 277 258 241 227 217 215 218 219 218 210 205 209 207 200 193 199 199 191 188 186 187 203 208 204 202 208 217 222 220 214 215 221 228 229 229 234 235 229 226 226 223 223 232 238 236 241 246 242 235 222 218 222 222 227 234 242 247 246 254 262
323 319 315 309 304 304 303 303 301 299 298 296 294 292 290 288 285 284 284 279 273 268 269 270 260 255 259 271 257 230 212 209 198 200 211 215 214 208 203 205 208 203 193 198 200 192 189 187 188 202 208 206 202 205 214 212 208 214 215 217 223 228 229 232 235 235 230 225 223 221 227 233 231 232 239 239 232 223 221 221 221 225 233 242 243 242 252 257
323 319 315 310 306 307 306 304 302 300 300 297 296 293 291 290 286 286 284 273 267 265 266 264 258 254 247 237 206 164 162 179 179 188 201 207 211 207 200 200 204 203 197 201 201 193 190 193 199 202 205 207 202 201 209 206 202 210 213 216 220 223 228 231 229 232 231 224 223 224 225 225 225 227 231 233 233 230 226 224 221 224 231 239 242 245 251 248
321 319 318 312 310 309 306 305 305 304 303 301 300 297 297 297 291 282 269 260 258 256 258 255 254 256 241 219 195 170 174 180 175 183 187 189 204 205 197 194 198 199 196 200 201 194 195 204 207 202 201 206 203 199 201 205 205 208 215 219 220 220 226 233 228 225 230 226 223 223 222 222 223 224 226 230 237 240 235 229 228 230 233 237 242 247 246 235
320 321 319 314 313 311 309 310 309 307 307 305 303 303 304 303 287 267 258 259 256 250 255 251 242 250 241 211 187 177 197 195 176 174 173 173 193 204 196 191 196 197 192 195 199 199 203 209 209 202 200 201 203 203 200 203 210 214 220 227 231 229 228 238 237 232 236 228 219 218 217 221 226 226 229 235 238 241 241 238 236 235 233 239 248 248 243 231
320 320 318 317 317 315 314 314 313 312 311 305 305 310 310 303 285 266 259 263 263 251 251 250 237 242 241 206 185 187 211 200 180 171 167 172 187 198 196 192 195 194 190 195 198 200 207 210 205 200 199 196 202 208 202 201 211 219 225 232 238 236 232 239 237 239 244 223 211 213 213 218 226 224 225 231 231 230 232 231 230 230 234 245 251 245 242 235
319 319 320 320 320 319 319 318 317 315 312 311 317 322 315 305 293 275 265 268 271 260 250 253 248 242 234 199 187 202 216 196 184 178 170 174 180 187 196 194 192 190 192 199 200 203 210 209 200 193 195 198 202 207 203 203 212 219 225 231 235 233 238 242 235 243 237 209 202 206 208 213 219 218 216 218 220 219 221 224 225 230 237 244 245 237 234 229
317 318 322 323 322 324 322 321 321 317 316 323 326 325 315 305 296 277 270 274 279 274 255 250 249 243 226 198 195 208 220 199 181 170 171 179 180 179 187 193 193 191 194 201 203 206 213 211 197 189 195 201 201 203 202 204 213 221 222 225 228 226 233 240 241 242 207 192 197 194 194 207 209 215 215 208 209 213 217 224 228 234 237 238 238 230 223 216
316 318 323 324 323 327 325 324 326 323 330 338 332 326 320 313 301 277 271 274 280 285 269 245 241 240 220 205 201 204 220 203 174 155 165 181 186 181 179 189 196 195 194 198 204 208 210 207 197 192 196 200 200 204 204 203 213 221 216 217 221 220 229 243 256 251 196 183 191 193 197 186 184 203 211 205 208 214 216 220 226 232 235 233 230 223 211 204
317 320 324 323 325 328 327 327 330 329 339 346 337 329 329 332 306 273 271 262 280 310 289 239 232 238 225 209 200 196 211 204 176 162 166 176 185 186 182 186 195 196 191 191 203 209 205 201 198 195 195 199 202 205 205 203 211 218 214 214 223 226 235 250 268 267 221 193 186 195 209 205 180 191 197 198 204 209 214 219 226 232 235 231 221 211 200 195
320 322 325 324 326 328 328 327 327 329 336 344 340 334 336 343 285 249 252 236 288 343 141 212 232 245 232 217 205 197 194 186 180 173 167 172 178 184 190 189 192 195 189 191 205 206 201 200 199 197 196 201 205 203 201 204 210 217 216 217 226 233 242 251 262 269 241 208 195 193 198 200 188 188 188 194 199 205 216 223 228 231 233 227 215 206 196 190
323 324 325 326 327 329 332 328 326 332 337 340 339 338 337 334 273 246 283 253 296 327 139 178 208 222 210 211 213 204 189 168 183 178 166 172 175 180 192 190 189 196 192 197 209 205 200 201 200 200 199 202 206 202 199 204 211 214 212 216 228 236 244 248 253 266 265 228 212 203 196 193 170 182 187 195 203 214 225 228 231 232 228 221 210 206 201 193
324 325 326 325 325 330 334 327 324 331 336 339 333 338 339 318 297 299 285 261 301 322 11 164 182 202 204 198 205 207 199 177 172 176 173 175 173 175 189 188 188 197 197 202 211 208 203 201 201 204 203 201 203 203 201 202 209 212 209 215 230 237 240 244 248 257 268 250 227 210 198 198 182 182 193 203 216 224 228 228 228 227 221 211 203 203 202 199
325 326 326 321 325 336 340 329 323 326 331 332 316 320 336 305 289 258 262 288 304 323 357 162 188 213 202 196 202 207 205 186 155 170 186 182 178 179 185 189 190 194 203 208 209 208 204 201 204 206 204 200 199 204 203 199 203 209 212 219 227 229 232 239 244 244 247 273 242 217 201 206 208 194 201 216 230 227 229 233 230 225 214 202 197 198 198 198
328 328 326 317 322 338 345 336 324 317 319 321 303 312 331 309 266 233 262 295 304 334 350 249 214 231 215 198 203 206 205 191 167 173 191 185 185 188 183 184 186 186 201 206 203 206 207 204 204 204 203 199 197 201 202 203 205 206 212 219 218 213 218 226 239 234 221 290 225 205 207 220 234 231 226 227 227 224 231 237 235 234 218 201 196 197 195 194
332 329 324 310 316 336 346 343 330 312 312 319 300 313 313 293 263 249 273 291 285 315 328 321 274 251 242 211 198 202 201 191 182 187 196 191 192 194 189 187 186 186 196 198 198 205 207 203 201 200 199 198 198 198 199 205 206 202 209 214 206 182 192 205 227 186 228 282 200 186 204 237 251 244 236 232 228 222 217 215 217 231 225 211 203 198 197 198
339 335 328 318 323 334 340 340 332 319 313 294 269 286 282 270 272 275 289 295 290 304 318 322 314 264 244 219 185 195 201 192 187 191 196 197 198 199 199 194 188 189 191 191 197 201 198 195 196 197 196 196 198 200 200 202 202 201 207 212 214 217 192 174 182 158 192 279 223 189 187 263 260 227 221 236 229 204 193 194 191 199 215 218 210 204 205 204
348 347 343 342 341 337 337 334 328 323 316 298 274 265 261 261 271 284 293 295 295 308 319 320 316 268 232 210 181 190 203 192 186 193 196 197 198 198 200 195 187 188 190 189 194 198 200 197 193 195 197 196 198 201 200 198 199 202 206 213 223 231 215 184 160 183 189 341 254 236 228 261 264 232 236 245 199 183 184 183 178 182 191 203 207 205 203 199
343 346 343 345 347 345 342 334 328 322 310 301 281 266 265 268 276 285 293 296 297 308 320 327 327 249 214 208 194 191 199 197 198 201 196 195 196 196 199 196 187 186 189 189 189 192 199 197 189 192 197 195 195 195 196 197 197 198 205 213 218 223 220 200 178 198 211 85 250 249 251 257 258 246 263 206 171 174 181 179 177 180 178 181 196 199 196 193
335 337 338 340 343 344 344 339 333 322 302 287 275 274 278 280 284 289 299 299 290 297 318 333 339 242 202 209 208 192 193 204 210 200 189 191 198 199 200 197 190 186 183 182 190 193 191 184 186 193 198 194 191 192 196 199 198 198 203 210 212 217 218 200 175 181 195 137 231 235 242 249 240 175 157 169 166 170 178 180 180 182 180 180 187 192 193 194
336 337 337 335 336 337 335 331 327 318 300 281 274 281 288 294 301 306 314 310 280 278 307 314 315 264 192 205 207 190 191 203 202 194 186 189 199 199 196 195 191 186 178 177 190 194 192 184 186 195 198 188 188 196 198 194 195 202 204 204 207 216 213 197 173 164 181 148 291 235 233 236 227 195 156 162 169 173 177 181 186 187 181 180 186 190 193 195
336 338 336 330 330 333 329 326 323 312 296 282 278 286 298 307 316 319 322 327 295 275 300 301 309 287 184 197 199 190 196 200 196 197 192 191 200 198 194 193 189 180 176 181 196 197 198 192 172 183 185 180 189 202 201 188 189 200 200 200 208 218 213 203 189 165 171 169 218 235 230 227 226 213 178 171 176 179 180 183 190 190 181 182 190 192 195 200
335 336 336 329 325 327 326 318 310 299 290 285 284 292 302 305 312 318 317 320 311 296 302 298 302 296 201 196 199 200 203 198 197 206 199 191 195 197 194 191 187 181 178 185 202 205 201 183 149 164 170 178 194 203 202 194 195 201 199 193 199 211 213 210 210 192 179 167 169 197 259 238 225 220 216 209 197 187 184 186 190 191 189 192 197 199 201 205
335 334 333 324 317 318 317 308 301 295 291 291 295 302 304 301 302 310 309 304 303 302 300 299 288 272 226 205 204 204 202 199 202 211 203 189 187 194 191 187 186 186 185 192 207 207 193 173 154 163 173 184 198 204 201 200 205 207 207 192 189 201 206 197 210 203 190 178 174 180 224 250 225 214 219 222 217 210 206 203 199 197 197 196 196 202 207 210
341 337 329 318 312 309 306 304 303 298 294 296 303 303 303 303 305 310 312 310 311 292 279 291 282 249 226 217 211 202 214 219 209 207 204 191 189 192 186 183 184 186 191 201 205 197 185 171 166 176 189 192 197 203 200 202 210 208 210 200 190 202 209 198 185 195 196 200 192 182 200 239 231 208 203 205 208 212 220 225 215 204 201 198 192 196 205 213
352 347 338 329 322 311 299 301 305 303 300 303 306 303 301 305 307 310 314 310 306 288 260 266 265 236 211 212 213 210 238 257 210 201 205 194 192 192 185 183 183 184 193 202 192 185 182 174 170 175 188 191 190 199 201 207 213 201 202 205 197 203 214 215 207 198 201 198 181 167 181 207 193 191 201 201 200 200 207 218 215 205 201 199 193 195 202 209
358 356 354 350 338 322 303 301 306 307 308 310 308 307 309 310 310 311 310 293 276 275 260 234 216 214 204 198 208 208 221 276 215 199 207 200 190 187 186 185 182 184 197 197 183 184 185 179 174 166 168 180 181 191 205 212 219 206 201 207 205 203 210 218 221 215 212 192 172 155 165 191 169 162 189 183 178 186 196 209 214 209 201 198 196 198 204 210
359 359 360 355 344 333 324 321 318 316 321 324 322 324 327 326 317 299 291 274 251 245 227 185 174 186 191 192 206 209 206 250 241 212 211 201 188 185 186 185 183 186 198 191 179 185 189 182 178 169 160 173 180 191 204 208 217 220 203 204 209 206 205 212 219 216 200 190 185 161 144 174 168 157 172 168 168 179 186 198 208 209 203 200 197 200 208 214
0 357 356 355 351 348 349 347 338 329 332 330 328 337 342 336 325 298 286 248 214 203 163 145 151 155 175 188 208 212 198 217 246 224 215 195 182 183 181 183 187 188 191 187 179 182 184 182 180 178 182 197 193 196 202 203 211 217 200 201 212 219 212 210 215 212 185 193 216 199 156 167 162 150 158 175 188 194 179 176 189 194 199 202 201 206 213 217
3 359 355 356 357 356 356 357 355 348 341 329 327 343 2 359 18 65 79 112 155 132 131 146 151 154 168 176 205 222 211 231 241 215 215 192 174 177 176 179 185 184 184 189 185 179 176 180 184 185 193 212 200 192 199 206 211 211 200 202 213 223 223 214 214 210 193 203 229 183 163 170 171 167 167 174 191 200 195 189 189 191 198 204 205 206 208 216
4 3 2 1 1 2 2 2 4 2 356 340 340 357 21 29 54 79 75 45 41 91 122 142 145 152 154 153 280 276 256 246 206 194 208 190 173 176 179 181 184 185 189 190 187 184 178 180 188 194 201 202 194 193 198 205 213 216 208 204 210 220 227 225 219 207 197 208 214 166 168 177 175 183 194 195 197 196 197 208 213 216 219 212 205 203 207 219
6 6 8 10 10 10 10 12 14 16 15 5 3 7 19 36 49 45 33 24 39 77 109 123 136 147 143 315 284 279 250 179 175 184 201 186 177 179 182 186 193 197 191 183 182 186 182 181 190 202 209 200 196 205 204 200 208 215 213 207 209 219 226 227 224 210 200 206 209 185 198 197 181 196 214 216 220 207 195 210 222 230 232 220 211 212 217 223
7 4 5 12 17 16 19 21 19 22 27 20 13 21 32 49 50 29 12 19 48 102 124 130 146 151 127 308 256 216 164 161 173 193 197 176 173 176 179 189 196 191 182 178 181 186 185 186 191 200 216 223 222 215 201 193 197 203 209 213 213 219 224 225 225 215 204 206 213 219 237 223 216 235 231 217 213 211 212 225 229 229 230 226 226 226 224 222
8 6 5 11 16 16 22 26 19 15 20 19 15 25 32 33 35 38 48 39 38 136 157 163 165 160 352 296 222 175 161 173 185 186 177 156 166 173 179 191 187 178 177 178 182 190 189 187 192 203 225 226 189 164 173 183 190 196 205 216 221 218 219 222 227 222 209 208 217 228 239 249 254 229 213 201 194 199 213 228 232 231 228 227 229 226 223 223
8 11 12 14 18 19 24 30 26 17 14 13 17 32 26 9 25 43 69 76 58 205 184 180 182 176 133 221 197 169 158 172 169 168 171 161 162 168 174 180 177 173 177 180 183 195 195 188 190 206 223 168 155 129 142 165 179 195 204 213 220 215 215 222 226 224 214 212 220 224 227 237 222 192 191 188 184 195 208 221 230 231 225 222 224 223 224 229
Height
3066 3065 3064 3063 3062 3062 3061 3061 3060 3059 3059 3058 3058 3058 3058 3058 3058 3058 3059 3060 3060 3062 3064 3066 3068 3069 3070 3070 3072 3074 3075 3076 3077 3077 3082 3088 3086 3086 3091 3093 3094 3096 3098 3100 3103 3105 3107 3110 3113 3115 3117 3119 3120 3123 3126 3126 3129 3132 3132 3131 3129 3129 3131 3133 3136 3137 3139 3141 3141 3142 3145 3144 3142 3141 3141 3141 3140 3140 3141 3141 3143 3145 3144 3145 3148 3149 3150 3152
3063 3062 3061 3060 3059 3059 3058 3057 3057 3056 3056 3055 3055 3055 3055 3055 3055 3055 3055 3056 3057 3058 3060 3062 3064 3065 3066 3066 3068 3070 3072 3073 3073 3076 3083 3084 3081 3084 3088 3090 3092 3094 3095 3098 3100 3103 3105 3108 3111 3113 3114 3116 3118 3121 3123 3124 3126 3127 3129 3128 3125 3126 3129 3132 3135 3136 3138 3139 3139 3140 3142 3141 3139 3139 3139 3140 3138 3138 3140 3140 3142 3143 3143 3144 3145 3147 3148 3149
3061 3060 3058 3058 3057 3056 3055 3054 3054 3053 3053 3052 3052 3052 3051 3051 3051 3052 3052 3052 3053 3054 3056 3059 3060 3061 3062 3062 3064 3066 3068 3069 3070 3075 3081 3080 3078 3082 3084 3086 3090 3091 3093 3095 3098 3100 3102 3106 3108 3110 3112 3113 3116 3118 3120 3122 3123 3123 3126 3124 3121 3125 3128 3130 3133 3134 3136 3137 3138 3138 3139 3138 3137 3137 3137 3138 3138 3139 3140 3140 3141 3141 3142 3143 3143 3144 3146 3147
3059 3057 3056 3055 3054 3053 3052 3051 3051 3050 3050 3049 3049 3049 3048 3048 3048 3048 3048 3049 3049 3050 3052 3055 3056 3057 3058 3058 3060 3062 3064 3066 3068 3073 3077 3076 3076 3079 3081 3083 3086 3088 3090 3093 3094 3097 3100 3102 3104 3107 3109 3111 3113 3115 3117 3119 3120 3121 3121 3119 3120 3126 3127 3128 3130 3131 3133 3134 3136 3137 3138 3137 3136 3136 3135 3136 3138 3139 3140 3140 3139 3139 3140 3141 3142 3142 3144 3145
3056 3055 3054 3053 3052 3051 3050 3049 3048 3048 3047 3046 3046 3045 3045 3045 3045 3045 3045 3045 3046 3047 3049 3051 3052 3053 3054 3055 3056 3058 3061 3064 3064 3068 3073 3072 3074 3076 3078 3080 3082 3085 3088 3089 3091 3094 3097 3099 3101 3103 3106 3108 3110 3112 3113 3116 3119 3119 3118 3118 3121 3125 3125 3126 3128 3130 3131 3132 3134 3136 3136 3135 3134 3134 3134 3135 3137 3137 3140 3140 3137 3137 3138 3139 3140 3141 3142 3143
3054 3053 3052 3050 3049 3048 3047 3046 3045 3045 3044 3044 3043 3043 3043 3042 3042 3042 3042 3042 3042 3044 3045 3047 3049 3049 3050 3051 3052 3054 3058 3061 3060 3064 3068 3069 3071 3074 3076 3077 3078 3081 3084 3086 3088 3092 3094 3097 3098 3099 3102 3105 3107 3109 3111 3114 3117 3116 3116 3118 3121 3123 3123 3124 3126 3127 3130 3131 3132 3133 3132 3132 3131 3131 3133 3134 3136 3136 3139 3139 3136 3136 3137 3138 3139 3139 3140 3141
3051 3050 3049 3048 3047 3045 3045 3044 3043 3042 3042 3041 3040 3040 3040 3039 3040 3039 3039 3039 3039 3040 3041 3043 3045 3045 3046 3047 3048 3050 3053 3057 3057 3060 3064 3066 3068 3070 3073 3074 3076 3078 3080 3083 3086 3089 3091 3094 3096 3097 3100 3102 3105 3107 3110 3113 3115 3114 3115 3117 3119 3121 3121 3122 3123 3123 3127 3129 3129 3130 3129 3128 3128 3129 3131 3133 3135 3135 3137 3138 3134 3134 3136 3136 3137 3138 3138 3138
3048 3047 3046 3045 3044 3043 3042 3041 3040 3040 3039 3039 3038 3038 3037 3037 3037 3036 3036 3036 3036 3037 3038 3040 3040 3041 3042 3043 3045 3044 3047 3053 3056 3059 3061 3062 3064 3066 3069 3072 3073 3075 3078 3081 3084 3087 3090 3091 3093 3096 3098 3100 3103 3106 3108 3111 3112 3112 3113 3115 3118 3119 3120 3121 3121 3121 3124 3126 3126 3126 3126 3126 3126 3128 3129 3131 3133 3134 3136 3137 3133 3132 3134 3135 3136 3136 3136 3135
3046 3044 3043 3042 3041 3040 3039 3038 3038 3037 3037 3037 3036 3036 3035 3034 3034 3034 3034 3033 3034 3034 3035 3036 3036 3038 3038 3039 3040 3036 3043 3054 3055 3054 3055 3054 3057 3060 3065 3068 3070 3073 3075 3079 3082 3085 3087 3089 3092 3095 3097 3099 3102 3104 3107 3108 3108 3110 3112 3114 3116 3117 3118 3119 3119 3120 3121 3123 3124 3123 3123 3124 3126 3127 3126 3128 3131 3132 3135 3136 3132 3130 3132 3134 3135 3134 3134 3133
3043 3042 3041 3040 3039 3038 3037 3036 3035 3035 3035 3034 3034 3033 3033 3032 3032 3032 3031 3031 3031 3031 3032 3032 3033 3034 3033 3034 3033 3030 3043 3053 3046 3044 3047 3047 3050 3055 3060 3064 3067 3070 3073 3076 3079 3081 3084 3087 3091 3095 3097 3099 3101 3103 3105 3105 3106 3109 3111 3113 3114 3115 3116 3117 3117 3118 3120 3121 3121 3121 3121 3122 3125 3125 3123 3126 3129 3131 3135 3135 3131 3129 3130 3132 3133 3133 3133 3133
3040 3039 3038 3037 3036 3035 3034 3034 3033 3033 3032 3032 3031 3031 3030 3030 3030 3030 3029 3029 3029 3029 3029 3029 3029 3029 3028 3029 3025 3028 3043 3046 3037 3039 3043 3046 3051 3054 3057 3061 3064 3068 3071 3073 3076 3079 3082 3086 3090 3093 3095 3096 3098 3100 3102 3103 3105 3108 3110 3111 3112 3113 3113 3114 3114 3115 3118 3120 3120 3119 3119 3120 3122 3122 3121 3125 3128 3130 3134 3133 3129 3128 3128 3131 3132 3131 3132 3133
3038 3037 3035 3035 3034 3033 3032 3031 3031 3030 3029 3029 3028 3028 3028 3028 3028 3027 3027 3027 3026 3027 3027 3026 3026 3024 3024 3022 3018 3029 3042 3039 3036 3037 3039 3046 3052 3054 3055 3057 3061 3064 3067 3071 3074 3077 3081 3084 3088 3089 3092 3094 3096 3098 3099 3101 3104 3105 3107 3108 3109 3110 3110 3111 3112 3114 3115 3117 3118 3118 3117 3117 3117 3118 3120 3123 3126 3128 3132 3132 3128 3126 3128 3130 3130 3130 3130 3131
3036 3034 3033 3032 3031 3030 3030 3029 3028 3027 3026 3026 3025 3025 3025 3025 3025 3025 3025 3024 3024 3024 3024 3024 3023 3022 3019 3014 3017 3031 3038 3035 3034 3033 3037 3045 3049 3052 3053 3054 3057 3060 3062 3066 3071 3076 3079 3083 3085 3086 3089 3092 3094 3096 3098 3100 3102 3102 3104 3105 3105 3107 3106 3107 3111 3112 3113 3114 3116 3117 3114 3112 3114 3116 3118 3122 3125 3127 3129 3130 3127 3127 3128 3128 3128 3128 3127 3125
3034 3033 3031 3030 3029 3028 3027 3027 3026 3024 3024 3023 3022 3022 3022 3022 3021 3021 3022 3021 3022 3021 3021 3021 3020 3019 3014 3010 3018 3030 3033 3031 3030 3029 3035 3043 3045 3049 3051 3052 3055 3057 3059 3062 3066 3071 3076 3080 3083 3084 3085 3087 3091 3095 3097 3098 3100 3101 3102 3102 3102 3102 3102 3105 3109 3110 3111 3112 3115 3116 3111 3110 3112 3114 3117 3120 3122 3124 3127 3129 3127 3125 3124 3123 3123 3121 3121 3119
3032 3031 3029 3028 3027 3026 3025 3024 3022 3021 3021 3020 3020 3019 3019 3018 3018 3018 3018 3018 3019 3018 3018 3018 3017 3015 3009 3008 3018 3025 3026 3025 3024 3027 3034 3039 3043 3047 3049 3051 3054 3056 3059 3061 3064 3067 3071 3076 3079 3080 3082 3085 3088 3091 3092 3094 3096 3098 3098 3098 3099 3099 3100 3103 3106 3107 3109 3110 3113 3113 3108 3108 3111 3113 3116 3118 3120 3122 3126 3126 3124 3121 3120 3120 3120 3120 3123 3125
3031 3029 3027 3026 3024 3023 3022 3020 3019 3018 3017 3017 3016 3016 3015 3015 3015 3015 3015 3015 3015 3014 3014 3015 3014 3012 3006 3007 3016 3020 3020 3020 3022 3027 3033 3037 3040 3046 3049 3051 3053 3055 3058 3060 3063 3066 3068 3072 3075 3078 3080 3083 3084 3086 3089 3090 3091 3094 3094 3094 3096 3097 3099 3101 3103 3105 3107 3109 3110 3109 3107 3107 3109 3112 3115 3116 3118 3121 3122 3122 3120 3119 3120 3122 3123 3125 3127 3130
3029 3027 3025 3024 3022 3021 3019 3018 3017 3015 3014 3013 3013 3012 3011 3011 3011 3011 3011 3011 3010 3010 3010 3011 3012 3008 3003 3008 3014 3016 3017 3019 3023 3027 3031 3034 3038 3044 3048 3049 3052 3053 3056 3060 3062 3064 3067 3069 3071 3075 3077 3079 3081 3084 3086 3085 3086 3089 3091 3093 3095 3096 3098 3098 3100 3102 3104 3106 3106 3106 3105 3105 3108 3111 3113 3115 3117 3117 3118 3118 3118 3118 3120 3123 3125 3126 3127 3128
3027 3025 3023 3022 3020 3019 3017 3016 3014 3013 3011 3010 3009 3008 3007 3007 3006 3006 3007 3007 3006 3006 3005 3007 3010 3005 3003 3009 3011 3012 3015 3016 3019 3024 3027 3030 3034 3040 3044 3047 3051 3052 3054 3058 3060 3062 3064 3066 3069 3071 3073 3074 3076 3079 3079 3080 3083 3087 3089 3091 3093 3094 3096 3096 3097 3099 3101 3102 3103 3103 3103 3103 3108 3110 3111 3114 3114 3114 3116 3117 3117 3118 3120 3122 3123 3125 3126 3128
3025 3023 3021 3020 3018 3016 3015 3013 3012 3010 3008 3007 3005 3004 3004 3003 3002 3002 3002 3002 3001 3001 3001 3003 3004 3002 3003 3008 3009 3009 3011 3013 3015 3019 3022 3026 3030 3035 3039 3043 3048 3050 3051 3053 3055 3058 3061 3063 3064 3064 3065 3067 3070 3073 3076 3080 3083 3086 3088 3090 3091 3093 3093 3093 3095 3096 3098 3099 3099 3100 3100 3101 3106 3107 3109 3113 3111 3112 3115 3115 3116 3119 3120 3120 3121 3123 3125 3127
3023 3021 3019 3017 3016 3014 3013 3011 3009 3007 3005 3003 3002 3000 3000 2999 2998 2998 2998 2997 2995 2996 2997 2998 2998 2997 3001 3006 3008 3006 3007 3009 3011 3014 3019 3023 3027 3031 3035 3040 3044 3045 3046 3048 3051 3055 3059 3059 3056 3056 3060 3065 3069 3073 3077 3081 3083 3085 3087 3088 3089 3090 3090 3091 3092 3093 3096 3097 3095 3096 3097 3099 3102 3103 3107 3110 3109 3111 3113 3114 3116 3118 3119 3120 3121 3123 3125 3127
3020 3018 3017 3015 3013 3012 3010 3008 3006 3004 3002 3000 2998 2997 2996 2995 2995 2994 2993 2991 2991 2992 2993 2994 2994 2993 2997 3003 3005 3004 3004 3004 3005 3008 3014 3020 3024 3028 3031 3035 3038 3039 3041 3046 3051 3054 3056 3052 3050 3055 3061 3066 3070 3073 3077 3080 3081 3083 3084 3085 3086 3087 3087 3088 3088 3089 3093 3094 3091 3093 3096 3098 3100 3100 3104 3108 3107 3108 3111 3113 3115 3116 3117 3119 3120 3122 3124 3125
3018 3016 3014 3013 3011 3009 3007 3006 3004 3002 2999 2997 2996 2994 2993 2993 2992 2991 2989 2986 2987 2989 2989 2991 2991 2990 2993 2999 3001 3001 3001 3001 3002 3005 3011 3017 3020 3023 3027 3031 3033 3035 3040 3045 3048 3050 3048 3045 3050 3057 3062 3066 3070 3073 3076 3078 3079 3079 3081 3082 3082 3084 3085 3085 3085 3085 3089 3090 3088 3091 3095 3096 3098 3099 3101 3105 3104 3104 3108 3112 3113 3113 3115 3117 3119 3120 3121 3123
3016 3014 3012 3010 3009 3007 3005 3004 3002 3000 2997 2995 2994 2993 2991 2991 2990 2990 2988 2985 2984 2986 2986 2986 2988 2988 2990 2995 2998 2997 2996 2999 3002 3004 3009 3014 3017 3020 3025 3027 3030 3034 3038 3040 3042 3043 3042 3043 3051 3058 3062 3066 3069 3071 3073 3075 3076 3076 3077 3079 3079 3081 3083 3083 3082 3082 3085 3087 3086 3089 3093 3095 3097 3097 3100 3103 3102 3102 3106 3109 3110 3112 3114 3116 3117 3117 3119 3121
3014 3012 3011 3009 3007 3005 3004 3002 3000 2998 2996 2995 2993 2991 2990 2989 2989 2989 2988 2985 2982 2982 2983 2984 2985 2986 2988 2992 2995 2995 2994 2996 2999 3001 3006 3011 3014 3019 3023 3026 3029 3032 3034 3037 3040 3041 3042 3045 3051 3057 3061 3064 3066 3069 3071 3072 3073 3073 3074 3076 3077 3078 3080 3081 3081 3081 3083 3086 3087 3089 3092 3093 3094 3095 3098 3100 3100 3100 3104 3106 3108 3109 3111 3113 3114 3115 3118 3120
3012 3011 3009 3007 3005 3004 3002 3000 2998 2997 2995 2994 2992 2990 2990 2989 2988 2988 2988 2986 2981 2978 2980 2981 2982 2983 2986 2990 2991 2991 2993 2994 2997 3000 3003 3009 3012 3016 3021 3025 3028 3029 3032 3037 3040 3041 3044 3047 3051 3055 3058 3061 3063 3065 3067 3068 3071 3071 3070 3073 3075 3076 3078 3078 3079 3081 3083 3083 3085 3087 3089 3090 3091 3092 3095 3096 3097 3099 3102 3104 3105 3106 3108 3110 3112 3113 3115 3118
3011 3009 3008 3006 3004 3002 3001 2999 2997 2996 2995 2993 2992 2990 2989 2988 2987 2987 2987 2986 2979 2975 2976 2977 2978 2980 2983 2985 2986 2990 2992 2991 2994 2997 3000 3007 3013 3015 3019 3023 3025 3027 3031 3037 3040 3041 3044 3047 3050 3052 3055 3058 3060 3061 3063 3066 3068 3067 3067 3071 3074 3074 3075 3076 3077 3081 3082 3081 3083 3084 3085 3088 3090 3091 3092 3092 3093 3096 3099 3101 3101 3103 3105 3108 3109 3111 3113 3116
3009 3008 3006 3005 3002 3000 2999 2998 2997 2995 2994 2993 2991 2990 2989 2988 2987 2986 2986 2986 2979 2974 2973 2974 2977 2978 2980 2983 2985 2988 2989 2989 2992 2994 2995 3002 3009 3014 3017 3019 3022 3026 3031 3036 3038 3037 3040 3044 3047 3050 3053 3055 3056 3057 3060 3064 3065 3065 3067 3070 3072 3073 3074 3075 3077 3080 3081 3081 3082 3082 3082 3085 3087 3090 3091 3091 3091 3093 3096 3097 3098 3101 3104 3105 3107 3109 3111 3113
3007 3006 3005 3004 3002 2999 2998 2997 2996 2995 2994 2992 2991 2990 2989 2988 2988 2986 2987 2986 2979 2974 2974 2975 2977 2978 2979 2982 2983 2984 2987 2989 2992 2993 2994 2999 3004 3010 3014 3016 3021 3025 3029 3032 3032 3034 3039 3042 3043 3047 3050 3050 3051 3054 3059 3063 3063 3064 3067 3069 3070 3073 3073 3075 3078 3077 3078 3079 3077 3077 3079 3082 3085 3088 3091 3091 3091 3092 3094 3095 3097 3099 3101 3102 3104 3107 3109 3112
3006 3005 3004 3003 3001 2998 2997 2996 2996 2994 2993 2992 2991 2990 2989 2989 2988 2987 2988 2986 2977 2974 2976 2976 2977 2979 2980 2981 2982 2985 2988 2989 2992 2995 2997 2999 3002 3006 3011 3016 3021 3025 3028 3030 3032 3035 3038 3040 3042 3046 3046 3047 3050 3054 3058 3061 3062 3064 3068 3069 3070 3072 3072 3074 3076 3076 3077 3076 3073 3074 3076 3079 3084 3086 3088 3090 3090 3091 3092 3094 3096 3098 3099 3100 3103 3106 3108 3111
3005 3004 3003 3002 3001 2998 2996 2995 2995 2994 2993 2992 2991 2990 2989 2989 2989 2989 2989 2984 2977 2976 2977 2977 2978 2981 2982 2982 2982 2984 2987 2989 2992 2997 3000 3000 3002 3005 3009 3015 3020 3025 3027 3028 3031 3035 3037 3039 3042 3043 3043 3046 3051 3055 3056 3059 3063 3066 3067 3068 3069 3070 3071 3073 3074 3074 3075 3073 3071 3073 3074 3076 3082 3083 3083 3085 3087 3088 3090 3091 3093 3095 3096 3098 3101 3104 3107 3110
3004 3003 3002 3001 3000 2998 2996 2995 2994 2993 2992 2992 2991 2990 2989 2989 2989 2989 2987 2981 2978 2978 2977 2977 2979 2980 2981 2983 2983 2983 2987 2990 2992 2995 2999 3000 3001 3003 3006 3011 3015 3020 3024 3026 3029 3032 3035 3037 3038 3039 3042 3047 3051 3054 3055 3058 3062 3065 3065 3066 3068 3068 3070 3071 3072 3072 3072 3071 3070 3072 3074 3074 3077 3079 3079 3081 3083 3084 3085 3087 3089 3091 3093 3095 3099 3101 3104 3108
3004 3003 3002 3000 2999 2998 2996 2995 2994 2993 2992 2992 2992 2990 2989 2989 2989 2987 2984 2980 2979 2978 2977 2978 2978 2978 2978 2980 2982 2983 2986 2989 2990 2992 2996 2999 3000 3000 3002 3004 3008 3012 3016 3020 3024 3027 3031 3033 3035 3039 3042 3045 3048 3051 3053 3055 3059 3061 3061 3063 3066 3066 3068 3069 3069 3069 3070 3069 3068 3069 3071 3072 3073 3075 3076 3077 3079 3081 3082 3086 3088 3089 3091 3093 3096 3099 3102 3106
3003 3002 3001 3000 2998 2997 2996 2995 2994 2993 2992 2992 2992 2990 2990 2990 2987 2984 2982 2981 2980 2978 2977 2978 2978 2978 2978 2977 2980 2983 2985 2986 2988 2991 2995 2998 3000 3000 3000 3002 3005 3009 3011 3016 3021 3025 3028 3032 3035 3037 3038 3041 3043 3045 3047 3049 3053 3056 3056 3059 3063 3063 3065 3068 3068 3068 3069 3069 3067 3067 3070 3071 3071 3072 3072 3074 3076 3078 3081 3084 3087 3089 3090 3092 3095 3098 3101 3104
3003 3002 3000 2999 2998 2997 2996 2995 2994 2992 2991 2991 2991 2990 2990 2989 2986 2983 2982 2981 2980 2978 2978 2977 2976 2976 2977 2977 2979 2982 2983 2985 2987 2990 2994 2996 2998 2999 3000 3001 3004 3009 3013 3017 3021 3022 3025 3026 3028 3030 3031 3035 3038 3041 3044 3047 3051 3054 3055 3058 3060 3059 3061 3065 3066 3067 3069 3069 3066 3067 3069 3069 3070 3069 3069 3072 3074 3077 3080 3083 3086 3089 3090 3093 3096 3098 3100 3102
3003 3001 3000 2999 2998 2997 2996 2994 2993 2992 2991 2991 2991 2990 2989 2987 2984 2982 2982 2981 2980 2978 2977 2975 2974 2974 2976 2977 2978 2980 2982 2984 2986 2990 2992 2994 2994 2996 2997 2998 3001 3005 3010 3015 3017 3020 3022 3022 3024 3028 3031 3033 3037 3041 3045 3048 3050 3053 3055 3056 3057 3057 3060 3063 3064 3066 3067 3068 3066 3066 3067 3068 3068 3068 3068 3070 3073 3076 3079 3081 3084 3087 3089 3092 3094 3097 3099 3100
3003 3001 3000 2998 2997 2996 2995 2994 2993 2992 2991 2991 2990 2989 2987 2986 2984 2982 2981 2980 2979 2978 2977 2975 2973 2973 2976 2977 2978 2979 2982 2984 2986 2989 2991 2993 2994 2994 2995 2997 3000 3002 3006 3011 3014 3016 3020 3021 3024 3029 3031 3033 3036 3040 3044 3046 3048 3050 3052 3052 3054 3058 3060 3061 3064 3065 3067 3069 3067 3065 3066 3066 3068 3067 3066 3068 3073 3076 3078 3080 3083 3086 3088 3089 3091 3095 3097 3099
3003 3001 2999 2998 2997 2996 2995 2994 2993 2991 2991 2990 2989 2987 2986 2984 2982 2981 2980 2979 2978 2978 2977 2975 2974 2974 2976 2977 2977 2978 2981 2983 2985 2987 2989 2992 2993 2994 2996 2998 3000 3002 3004 3009 3013 3015 3018 3021 3023 3026 3029 3032 3036 3040 3043 3045 3047 3047 3048 3051 3055 3059 3059 3059 3061 3064 3067 3070 3068 3065 3066 3066 3067 3067 3066 3068 3073 3076 3077 3079 3082 3085 3087 3087 3089 3093 3096 3098
3002 3000 2998 2997 2996 2995 2994 2993 2992 2991 2990 2989 2987 2986 2984 2982 2981 2980 2979 2978 2977 2977 2977 2977 2975 2975 2976 2977 2977 2979 2981 2982 2984 2986 2987 2990 2991 2992 2996 2998 3000 3002 3004 3007 3013 3016 3018 3020 3022 3025 3028 3031 3035 3038 3040 3042 3045 3046 3048 3052 3054 3055 3056 3057 3059 3062 3066 3069 3068 3066 3066 3066 3067 3068 3067 3067 3070 3073 3076 3078 3080 3084 3087 3088 3089 3092 3095 3098
3001 3000 2998 2996 2995 2995 2994 2992 2991 2990 2989 2988 2986 2984 2982 2981 2980 2979 2977 2977 2977 2977 2977 2976 2976 2975 2976 2977 2978 2979 2981 2982 2984 2985 2986 2988 2990 2991 2994 2997 2998 3001 3003 3007 3011 3015 3017 3018 3019 3024 3028 3031 3033 3034 3034 3037 3042 3045 3049 3051 3052 3052 3054 3056 3057 3059 3063 3067 3069 3068 3066 3065 3066 3068 3069 3068 3068 3070 3073 3076 3079 3082 3085 3088 3090 3092 3094 3096
3000 2999 2997 2995 2994 2993 2993 2991 2990 2989 2988 2986 2985 2983 2981 2979 2978 2978 2977 2976 2977 2977 2976 2976 2975 2975 2975 2976 2977 2978 2981 2983 2983 2985 2986 2987 2989 2990 2993 2995 2997 3000 3003 3006 3010 3014 3016 3017 3017 3022 3027 3030 3029 3029 3030 3035 3039 3042 3045 3047 3049 3052 3053 3055 3057 3058 3060 3063 3067 3069 3068 3066 3066 3067 3068 3068 3068 3069 3071 3074 3078 3081 3083 3086 3089 3091 3092 3094
3000 2998 2997 2995 2993 2992 2991 2990 2989 2988 2986 2984 2982 2981 2980 2978 2976 2976 2977 2976 2976 2976 2976 2976 2975 2975 2975 2976 2977 2978 2980 2982 2983 2984 2985 2986 2987 2989 2990 2992 2995 2999 3003 3006 3009 3012 3015 3016 3018 3021 3024 3026 3028 3029 3032 3037 3039 3041 3043 3045 3047 3050 3052 3054 3056 3057 3058 3060 3063 3066 3067 3066 3065 3066 3066 3066 3067 3069 3070 3072 3076 3079 3082 3085 3088 3090 3091 3092
2999 2997 2996 2994 2992 2991 2990 2988 2987 2986 2984 2982 2981 2980 2979 2978 2976 2975 2976 2975 2975 2975 2975 2975 2975 2974 2975 2976 2978 2978 2980 2981 2982 2983 2985 2985 2986 2988 2989 2990 2993 2999 3003 3006 3009 3012 3013 3016 3019 3022 3024 3026 3030 3033 3034 3036 3040 3042 3043 3045 3047 3049 3050 3052 3054 3055 3057 3059 3060 3063 3065 3064 3064 3064 3064 3064 3065 3067 3069 3070 3073 3076 3080 3083 3086 3089 3091 3093
2999 2997 2995 2993 2991 2990 2989 2986 2985 2985 2982 2981 2980 2979 2979 2978 2975 2974 2974 2974 2974 2975 2974 2974 2974 2974 2975 2976 2978 2978 2979 2980 2980 2982 2984 2985 2986 2989 2990 2990 2993 2998 3002 3006 3009 3012 3013 3015 3017 3021 3026 3029 3033 3035 3035 3036 3039 3041 3041 3043 3046 3047 3049 3051 3054 3055 3056 3057 3058 3061 3064 3064 3064 3064 3064 3063 3064 3066 3068 3069 3072 3076 3079 3082 3085 3087 3089 3091
2998 2996 2994 2992 2990 2989 2988 2985 2984 2982 2981 2980 2979 2978 2977 2976 2974 2973 2973 2973 2974 2973 2974 2974 2974 2974 2975 2976 2977 2978 2979 2980 2980 2981 2983 2985 2986 2989 2990 2992 2994 2998 3002 3005 3008 3011 3012 3014 3016 3019 3024 3028 3030 3032 3032 3032 3034 3036 3038 3041 3044 3046 3049 3051 3053 3055 3055 3055 3056 3059 3062 3063 3063 3064 3063 3063 3064 3067 3068 3069 3072 3076 3079 3082 3084 3086 3088 3089
2997 2995 2993 2991 2989 2988 2986 2985 2983 2981 2979 2979 2977 2976 2975 2974 2974 2973 2972 2972 2973 2973 2973 2974 2974 2974 2975 2977 2978 2978 2978 2980 2981 2981 2982 2985 2987 2988 2990 2992 2995 2999 3003 3006 3009 3011 3012 3014 3015 3016 3019 3022 3023 3023 3023 3025 3030 3034 3037 3040 3042 3045 3048 3050 3051 3053 3053 3054 3055 3058 3060 3061 3063 3063 3063 3064 3066 3068 3069 3070 3072 3076 3079 3081 3083 3086 3087 3088
2997 2994 2992 2990 2988 2986 2985 2983 2982 2980 2978 2978 2976 2975 2974 2973 2973 2972 2971 2971 2972 2973 2974 2974 2974 2975 2976 2978 2979 2979 2978 2979 2981 2981 2982 2985 2987 2987 2989 2993 2996 2999 3004 3008 3010 3012 3013 3014 3015 3016 3018 3021 3022 3022 3024 3027 3031 3034 3036 3039 3041 3043 3046 3049 3050 3051 3052 3053 3055 3057 3058 3060 3062 3063 3063 3064 3066 3067 3068 3070 3072 3075 3078 3080 3082 3085 3087 3088
2998 2996 2994 2990 2987 2985 2983 2982 2981 2980 2978 2978 2976 2975 2974 2973 2973 2972 2972 2972 2973 2974 2974 2974 2975 2976 2977 2980 2980 2980 2979 2979 2980 2981 2981 2984 2988 2989 2991 2994 2996 3000 3005 3009 3011 3013 3014 3015 3016 3018 3021 3024 3025 3027 3029 3030 3031 3034 3036 3039 3041 3042 3044 3047 3049 3050 3052 3053 3054 3056 3058 3060 3062 3063 3063 3065 3066 3067 3068 3070 3072 3075 3076 3078 3081 3083 3085 3086
3000 2998 2996 2993 2989 2986 2983 2981 2981 2980 2979 2978 2977 2976 2975 2974 2974 2973 2973 2973 2973 2974 2975 2975 2977 2978 2979 2981 2981 2981 2981 2980 2981 2981 2981 2984 2989 2990 2992 2995 2998 3000 3005 3008 3011 3013 3014 3016 3017 3020 3022 3024 3026 3028 3030 3031 3032 3035 3036 3039 3041 3041 3043 3046 3048 3050 3051 3053 3055 3056 3057 3059 3062 3062 3063 3065 3067 3068 3069 3070 3073 3075 3076 3078 3079 3081 3083 3083
3001 2999 2996 2994 2992 2989 2986 2983 2981 2980 2980 2979 2978 2977 2976 2976 2976 2975 2975 2975 2975 2976 2977 2978 2979 2980 2981 2981 2981 2981 2981 2980 2980 2981 2982 2985 2989 2990 2992 2995 2998 3001 3005 3008 3010 3012 3014 3015 3018 3020 3021 3023 3025 3027 3029 3031 3033 3035 3037 3039 3041 3041 3042 3046 3048 3049 3051 3053 3055 3057 3058 3059 3061 3061 3062 3064 3066 3068 3070 3071 3072 3074 3076 3077 3078 3080 3081 3082
3002 2999 2996 2994 2993 2991 2988 2984 2982 2982 2981 2980 2979 2979 2978 2978 2978 2977 2977 2977 2977 2977 2978 2980 2981 2981 2981 2981 2980 2980 2980 2980 2980 2981 2982 2985 2988 2991 2993 2996 2998 3002 3006 3008 3010 3012 3013 3015 3017 3019 3021 3023 3024 3024 3026 3028 3031 3035 3037 3038 3040 3041 3042 3045 3047 3049 3050 3052 3054 3056 3058 3059 3060 3061 3062 3063 3065 3067 3069 3070 3071 3073 3075 3076 3078 3079 3080 3081
3005 3002 2998 2995 2993 2991 2989 2986 2984 2983 2983 2982 2981 2980 2979 2979 2979 2979 2978 2978 2979 2979 2980 2980 2981 2982 2982 2982 2981 2981 2981 2982 2981 2981 2982 2985 2989 2994 2996 2997 2999 3002 3004 3007 3010 3012 3013 3015 3017 3019 3021 3022 3022 3022 3024 3026 3030 3034 3035 3036 3039 3040 3040 3043 3046 3048 3049 3050 3053 3055 3056 3057 3059 3060 3061 3063 3065 3066 3067 3068 3070 3072 3074 3076 3077 3078 3079 3080
3007 3004 3001 2998 2995 2993 2990 2987 2985 2985 2984 2983 2982 2981 2981 2980 2980 2979 2979 2979 2980 2980 2981 2981 2982 2983 2982 2983 2983 2983 2983 2983 2982 2983 2983 2984 2989 2995 2997 2998 3001 3003 3004 3008 3010 3012 3014 3015 3017 3019 3020 3021 3021 3021 3023 3026 3029 3032 3034 3035 3037 3038 3040 3042 3045 3047 3049 3050 3052 3053 3055 3056 3057 3059 3061 3063 3065 3066 3066 3067 3069 3071 3073 3075 3076 3077 3078 3079